contact:dominique.lefevre@mio.osupytheas.fr, maurice.libes@osupytheas.fr, didier.mallarino@osupytheas.fr
Project:EMSO http://www.emso-fr.org/EMSO-France
Depth: 2436.0 m
Title:EMSO Ligure Ouest : Data MII capteur MICROCAT
DateTime_Computer,Latitude,Longitude,Temperature,Conductivity,Pressure,DateTime_Instrument
DateTime_Computer,Latitude,Longitude,degC,S m-1,dbar,DateTime_Instrument
2022-02-03T00:01:24Z,42.805,6.029,13.3007,4.60033,2469.923,2022-2-03T02:02:57Z
2022-02-03T00:04:27Z,42.805,6.029,13.3009,4.60033,2469.923,2022-2-03T02:06:00Z
2022-02-03T00:07:30Z,42.805,6.029,13.3009,4.60033,2469.97,2022-2-03T02:09:03Z
2022-02-03T00:10:33Z,42.805,6.029,13.3009,4.60033,2469.96,2022-2-03T02:12:06Z
2022-02-03T00:13:36Z,42.805,6.029,13.3009,4.60033,2469.96,2022-2-03T02:15:09Z
2022-02-03T00:16:40Z,42.805,6.029,13.3006,4.60033,2469.937,2022-2-03T02:18:12Z
2022-02-03T00:19:43Z,42.805,6.029,13.3007,4.60033,2469.947,2022-2-03T02:21:15Z
2022-02-03T00:22:46Z,42.805,6.029,13.3005,4.60034,2469.97,2022-2-03T02:24:18Z
2022-02-03T00:25:49Z,42.805,6.029,13.3006,4.60034,2469.947,2022-2-03T02:27:21Z
2022-02-03T00:28:52Z,42.805,6.029,13.3007,4.60034,2469.947,2022-2-03T02:30:25Z
2022-02-03T00:31:55Z,42.805,6.029,13.3007,4.60033,2469.9,2022-2-03T02:33:28Z
2022-02-03T00:34:58Z,42.805,6.029,13.3007,4.60034,2469.96,2022-2-03T02:36:31Z
2022-02-03T00:38:01Z,42.805,6.029,13.3006,4.60036,2469.947,2022-2-03T02:39:34Z
2022-02-03T00:41:04Z,42.805,6.029,13.3008,4.60036,2469.947,2022-2-03T02:42:37Z
2022-02-03T00:44:08Z,42.805,6.029,13.3011,4.60036,2469.947,2022-2-03T02:45:40Z
2022-02-03T00:47:11Z,42.805,6.029,13.3009,4.60036,2469.937,2022-2-03T02:48:43Z
2022-02-03T00:50:14Z,42.805,6.029,13.3009,4.60037,2469.97,2022-2-03T02:51:46Z
2022-02-03T00:53:17Z,42.805,6.029,13.3011,4.60034,2469.96,2022-2-03T02:54:50Z
2022-02-03T00:56:20Z,42.805,6.029,13.3010,4.60034,2469.947,2022-2-03T02:57:53Z
2022-02-03T00:59:23Z,42.805,6.029,13.3009,4.60034,2469.96,2022-2-03T03:00:56Z
2022-02-03T01:02:26Z,42.805,6.029,13.3010,4.60034,2469.96,2022-2-03T03:03:59Z
2022-02-03T01:05:29Z,42.805,6.029,13.3009,4.60036,2469.947,2022-2-03T03:07:02Z
2022-02-03T01:08:33Z,42.805,6.029,13.3002,4.60035,2469.937,2022-2-03T03:10:05Z
2022-02-03T01:11:36Z,42.805,6.029,13.3013,4.60036,2469.96,2022-2-03T03:13:08Z
2022-02-03T01:14:39Z,42.805,6.029,13.3010,4.60038,2469.947,2022-2-03T03:16:11Z
2022-02-03T01:17:42Z,42.805,6.029,13.3010,4.60039,2469.96,2022-2-03T03:19:14Z
2022-02-03T01:20:45Z,42.805,6.029,13.3014,4.60035,2469.947,2022-2-03T03:22:18Z
2022-02-03T01:23:48Z,42.805,6.029,13.3011,4.60036,2469.947,2022-2-03T03:25:21Z
2022-02-03T01:26:51Z,42.805,6.029,13.3009,4.60037,2469.96,2022-2-03T03:28:24Z
2022-02-03T01:29:54Z,42.805,6.029,13.3011,4.60036,2469.947,2022-2-03T03:31:27Z
2022-02-03T01:32:57Z,42.805,6.029,13.3006,4.60037,2469.96,2022-2-03T03:34:30Z
2022-02-03T01:36:01Z,42.805,6.029,13.3007,4.60036,2469.97,2022-2-03T03:37:33Z
2022-02-03T01:39:04Z,42.805,6.029,13.3010,4.60038,2469.9,2022-2-03T03:40:36Z
2022-02-03T01:42:07Z,42.805,6.029,13.3010,4.60038,2469.947,2022-2-03T03:43:39Z
2022-02-03T01:45:10Z,42.805,6.029,13.3009,4.60039,2469.9,2022-2-03T03:46:43Z
2022-02-03T01:48:13Z,42.805,6.029,13.3009,4.60037,2469.947,2022-2-03T03:49:46Z
2022-02-03T01:51:16Z,42.805,6.029,13.3011,4.60037,2469.97,2022-2-03T03:52:49Z
2022-02-03T01:54:19Z,42.805,6.029,13.3008,4.60038,2469.937,2022-2-03T03:55:52Z
2022-02-03T01:57:22Z,42.805,6.029,13.3011,4.60038,2469.984,2022-2-03T03:58:55Z
2022-02-03T02:00:26Z,42.805,6.029,13.3009,4.60038,2469.923,2022-2-03T04:01:58Z
2022-02-03T02:03:29Z,42.805,6.029,13.3009,4.60038,2469.923,2022-2-03T04:05:01Z
2022-02-03T02:06:32Z,42.805,6.029,13.3011,4.60037,2469.96,2022-2-03T04:08:04Z
2022-02-03T02:09:35Z,42.805,6.029,13.3014,4.60039,2469.97,2022-2-03T04:11:07Z
2022-02-03T02:12:38Z,42.805,6.029,13.3011,4.60037,2469.96,2022-2-03T04:14:11Z
2022-02-03T02:15:41Z,42.805,6.029,13.3011,4.60037,2469.937,2022-2-03T04:17:14Z
2022-02-03T02:18:44Z,42.805,6.029,13.3009,4.60039,2469.947,2022-2-03T04:20:17Z
2022-02-03T02:21:47Z,42.805,6.029,13.3013,4.60039,2469.923,2022-2-03T04:23:20Z
2022-02-03T02:24:50Z,42.805,6.029,13.3013,4.60041,2469.937,2022-2-03T04:26:23Z
2022-02-03T02:27:54Z,42.805,6.029,13.3009,4.60039,2469.923,2022-2-03T04:29:26Z
2022-02-03T02:30:57Z,42.805,6.029,13.3010,4.60040,2469.937,2022-2-03T04:32:29Z
2022-02-03T02:34:00Z,42.805,6.029,13.3011,4.60040,2469.9,2022-2-03T04:35:32Z
2022-02-03T02:37:03Z,42.805,6.029,13.3014,4.60039,2469.937,2022-2-03T04:38:35Z
2022-02-03T02:40:06Z,42.805,6.029,13.3013,4.60041,2469.947,2022-2-03T04:41:39Z
2022-02-03T02:43:09Z,42.805,6.029,13.3011,4.60041,2469.947,2022-2-03T04:44:42Z
2022-02-03T02:46:12Z,42.805,6.029,13.3011,4.60041,2469.947,2022-2-03T04:47:45Z
2022-02-03T02:49:15Z,42.805,6.029,13.3011,4.60041,2469.96,2022-2-03T04:50:48Z
2022-02-03T02:52:19Z,42.805,6.029,13.3011,4.60041,2469.96,2022-2-03T04:53:51Z
2022-02-03T02:55:22Z,42.805,6.029,13.3011,4.60039,2469.96,2022-2-03T04:56:54Z
2022-02-03T02:58:25Z,42.805,6.029,13.3014,4.60041,2469.947,2022-2-03T04:59:57Z
2022-02-03T03:01:28Z,42.805,6.029,13.3011,4.60041,2469.947,2022-2-03T05:03:00Z
2022-02-03T03:04:31Z,42.805,6.029,13.3016,4.60041,2469.9,2022-2-03T05:06:04Z
2022-02-03T03:07:34Z,42.805,6.029,13.3013,4.60040,2469.96,2022-2-03T05:09:07Z
2022-02-03T03:10:37Z,42.805,6.029,13.3012,4.60044,2469.96,2022-2-03T05:12:10Z
2022-02-03T03:13:40Z,42.805,6.029,13.3015,4.60042,2469.947,2022-2-03T05:15:13Z
2022-02-03T03:16:43Z,42.805,6.029,13.3011,4.60042,2469.947,2022-2-03T05:18:16Z
2022-02-03T03:19:47Z,42.805,6.029,13.3014,4.60047,2469.96,2022-2-03T05:21:19Z
2022-02-03T03:22:50Z,42.805,6.029,13.3014,4.60040,2469.947,2022-2-03T05:24:22Z
2022-02-03T03:25:53Z,42.805,6.029,13.3015,4.60041,2469.97,2022-2-03T05:27:25Z
2022-02-03T03:28:56Z,42.805,6.029,13.3014,4.60042,2469.984,2022-2-03T05:30:29Z
2022-02-03T03:31:59Z,42.805,6.029,13.3012,4.60044,2469.947,2022-2-03T05:33:32Z
2022-02-03T03:35:02Z,42.805,6.029,13.3013,4.60044,2469.97,2022-2-03T05:36:35Z
2022-02-03T03:38:05Z,42.805,6.029,13.3014,4.60045,2469.933,2022-2-03T05:39:38Z
2022-02-03T03:41:08Z,42.805,6.029,13.3013,4.60053,2469.984,2022-2-03T05:42:41Z
2022-02-03T03:44:12Z,42.805,6.029,13.3011,4.60064,2469.923,2022-2-03T05:45:44Z
2022-02-03T03:47:15Z,42.805,6.029,13.3014,4.60045,2469.97,2022-2-03T05:48:47Z
2022-02-03T03:50:18Z,42.805,6.029,13.3018,4.60074,2469.923,2022-2-03T05:51:50Z
2022-02-03T03:53:21Z,42.805,6.029,13.3014,4.60057,2470.007,2022-2-03T05:54:53Z
2022-02-03T03:56:24Z,42.805,6.029,13.3013,4.60044,2470.017,2022-2-03T05:57:57Z
2022-02-03T03:59:27Z,42.805,6.029,13.3021,4.60044,2469.984,2022-2-03T06:01:00Z
2022-02-03T04:02:30Z,42.805,6.029,13.3011,4.60049,2469.97,2022-2-03T06:04:03Z
2022-02-03T04:05:33Z,42.805,6.029,13.3014,4.60070,2469.96,2022-2-03T06:07:06Z
2022-02-03T04:08:36Z,42.805,6.029,13.3017,4.60084,2469.984,2022-2-03T06:10:09Z
2022-02-03T04:11:40Z,42.805,6.029,13.3080,4.60133,2469.984,2022-2-03T06:13:12Z
2022-02-03T04:14:43Z,42.805,6.029,13.3067,4.60097,2469.96,2022-2-03T06:16:15Z
2022-02-03T04:17:46Z,42.805,6.029,13.3051,4.60101,2469.947,2022-2-03T06:19:18Z
2022-02-03T04:20:49Z,42.805,6.029,13.3061,4.60094,2469.97,2022-2-03T06:22:21Z
2022-02-03T04:23:52Z,42.805,6.029,13.3053,4.60084,2469.993,2022-2-03T06:25:25Z
2022-02-03T04:26:55Z,42.805,6.029,13.3057,4.60087,2469.984,2022-2-03T06:28:28Z
2022-02-03T04:29:58Z,42.805,6.029,13.3056,4.60079,2470.007,2022-2-03T06:31:31Z
2022-02-03T04:33:01Z,42.805,6.029,13.3069,4.60075,2469.97,2022-2-03T06:34:34Z
2022-02-03T04:36:05Z,42.805,6.029,13.3056,4.60063,2470.007,2022-2-03T06:37:37Z
2022-02-03T04:39:08Z,42.805,6.029,13.3052,4.60092,2469.984,2022-2-03T06:40:40Z
2022-02-03T04:42:11Z,42.805,6.029,13.3086,4.60075,2469.984,2022-2-03T06:43:43Z
2022-02-03T04:45:14Z,42.805,6.029,13.3047,4.60083,2469.993,2022-2-03T06:46:46Z
2022-02-03T04:48:17Z,42.805,6.029,13.3050,4.60070,2469.993,2022-2-03T06:49:50Z
2022-02-03T04:51:20Z,42.805,6.029,13.3059,4.60104,2470.04,2022-2-03T06:52:53Z
2022-02-03T04:54:23Z,42.805,6.029,13.3069,4.60077,2470.017,2022-2-03T06:55:56Z
2022-02-03T04:57:26Z,42.805,6.029,13.3073,4.60073,2470.04,2022-2-03T06:58:59Z
2022-02-03T05:00:30Z,42.805,6.029,13.3060,4.60074,2470.04,2022-2-03T07:02:02Z
2022-02-03T05:03:33Z,42.805,6.029,13.3061,4.60084,2470.063,2022-2-03T07:05:05Z
2022-02-03T05:06:36Z,42.805,6.029,13.3058,4.60087,2470.053,2022-2-03T07:08:08Z
2022-02-03T05:09:39Z,42.805,6.029,13.3060,4.60083,2470.053,2022-2-03T07:11:11Z
2022-02-03T05:12:42Z,42.805,6.029,13.3051,4.60079,2470.077,2022-2-03T07:14:14Z
2022-02-03T05:15:45Z,42.805,6.029,13.3063,4.60075,2470.053,2022-2-03T07:17:18Z
2022-02-03T05:18:48Z,42.805,6.029,13.3053,4.60074,2470.1,2022-2-03T07:20:21Z
2022-02-03T05:21:51Z,42.805,6.029,13.3058,4.60076,2470.063,2022-2-03T07:23:24Z
2022-02-03T05:24:54Z,42.805,6.029,13.3059,4.60084,2470.063,2022-2-03T07:26:27Z
2022-02-03T05:27:58Z,42.805,6.029,13.3045,4.60081,2470.1,2022-2-03T07:29:30Z
2022-02-03T05:31:01Z,42.805,6.029,13.3045,4.60064,2470.063,2022-2-03T07:32:33Z
2022-02-03T05:34:04Z,42.805,6.029,13.3040,4.60072,2470.1,2022-2-03T07:35:36Z
2022-02-03T05:37:07Z,42.805,6.029,13.3034,4.60064,2470.1,2022-2-03T07:38:39Z
2022-02-03T05:40:10Z,42.805,6.029,13.3041,4.60068,2470.1,2022-2-03T07:41:43Z
2022-02-03T05:43:13Z,42.805,6.029,13.3046,4.60062,2470.124,2022-2-03T07:44:46Z
2022-02-03T05:46:16Z,42.805,6.029,13.3037,4.60059,2470.087,2022-2-03T07:47:49Z
2022-02-03T05:49:19Z,42.805,6.029,13.3044,4.60057,2470.11,2022-2-03T07:50:52Z
2022-02-03T05:52:22Z,42.805,6.029,13.3033,4.60059,2470.124,2022-2-03T07:53:55Z
2022-02-03T05:55:26Z,42.805,6.029,13.3042,4.60062,2470.1,2022-2-03T07:56:58Z
2022-02-03T05:58:29Z,42.805,6.029,13.3039,4.60064,2470.147,2022-2-03T08:00:01Z
2022-02-03T06:01:32Z,42.805,6.029,13.3045,4.60062,2470.124,2022-2-03T08:03:04Z
2022-02-03T06:04:35Z,42.805,6.029,13.3039,4.60057,2470.133,2022-2-03T08:06:08Z
2022-02-03T06:07:38Z,42.805,6.029,13.3039,4.60062,2470.133,2022-2-03T08:09:11Z
2022-02-03T06:10:41Z,42.805,6.029,13.3034,4.60057,2470.147,2022-2-03T08:12:14Z
2022-02-03T06:13:44Z,42.805,6.029,13.3038,4.60063,2470.133,2022-2-03T08:15:17Z
2022-02-03T06:16:47Z,42.805,6.029,13.3034,4.60064,2470.124,2022-2-03T08:18:20Z
2022-02-03T06:19:51Z,42.805,6.029,13.3035,4.60058,2470.171,2022-2-03T08:21:23Z
2022-02-03T06:22:54Z,42.805,6.029,13.3038,4.60064,2470.171,2022-2-03T08:24:26Z
2022-02-03T06:25:57Z,42.805,6.029,13.3030,4.60050,2470.156,2022-2-03T08:27:29Z
2022-02-03T06:29:00Z,42.805,6.029,13.3034,4.60057,2470.171,2022-2-03T08:30:32Z
2022-02-03T06:32:03Z,42.805,6.029,13.3034,4.60057,2470.156,2022-2-03T08:33:36Z
2022-02-03T06:35:06Z,42.805,6.029,13.3034,4.60054,2470.194,2022-2-03T08:36:39Z
2022-02-03T06:38:09Z,42.805,6.029,13.3031,4.60056,2470.18,2022-2-03T08:39:42Z
2022-02-03T06:41:12Z,42.805,6.029,13.3031,4.60058,2470.156,2022-2-03T08:42:45Z
2022-02-03T06:44:15Z,42.805,6.029,13.3026,4.60053,2470.18,2022-2-03T08:45:48Z
2022-02-03T06:47:19Z,42.805,6.029,13.3030,4.60057,2470.18,2022-2-03T08:48:51Z
2022-02-03T06:50:22Z,42.805,6.029,13.3034,4.60057,2470.18,2022-2-03T08:51:54Z
2022-02-03T06:53:25Z,42.805,6.029,13.3026,4.60052,2470.156,2022-2-03T08:54:57Z
2022-02-03T06:56:28Z,42.805,6.029,13.3026,4.60054,2470.203,2022-2-03T08:58:01Z
2022-02-03T06:59:31Z,42.805,6.029,13.3026,4.60052,2470.18,2022-2-03T09:01:04Z
2022-02-03T07:02:34Z,42.805,6.029,13.3026,4.60047,2470.227,2022-2-03T09:04:07Z
2022-02-03T07:05:37Z,42.805,6.029,13.3022,4.60052,2470.18,2022-2-03T09:07:10Z
2022-02-03T07:08:40Z,42.805,6.029,13.3021,4.60055,2470.18,2022-2-03T09:10:13Z
2022-02-03T07:11:44Z,42.805,6.029,13.3027,4.60051,2470.217,2022-2-03T09:13:16Z
2022-02-03T07:14:47Z,42.805,6.029,13.3022,4.60052,2470.194,2022-2-03T09:16:19Z
2022-02-03T07:17:50Z,42.805,6.029,13.3029,4.60053,2470.24,2022-2-03T09:19:22Z
2022-02-03T07:20:53Z,42.805,6.029,13.3024,4.60057,2470.203,2022-2-03T09:22:25Z
2022-02-03T07:23:56Z,42.805,6.029,13.3031,4.60053,2470.264,2022-2-03T09:25:29Z
2022-02-03T07:26:59Z,42.805,6.029,13.3029,4.60053,2470.203,2022-2-03T09:28:32Z
2022-02-03T07:30:02Z,42.805,6.029,13.3019,4.60051,2470.25,2022-2-03T09:31:35Z
2022-02-03T07:33:05Z,42.805,6.029,13.3026,4.60051,2470.227,2022-2-03T09:34:38Z
2022-02-03T07:36:08Z,42.805,6.029,13.3029,4.60053,2470.25,2022-2-03T09:37:41Z
2022-02-03T07:39:12Z,42.805,6.029,13.3020,4.60049,2470.273,2022-2-03T09:40:44Z
2022-02-03T07:42:15Z,42.805,6.029,13.3029,4.60049,2470.25,2022-2-03T09:43:47Z
2022-02-03T07:45:18Z,42.805,6.029,13.3025,4.60051,2470.297,2022-2-03T09:46:50Z
2022-02-03T07:48:21Z,42.805,6.029,13.3021,4.60045,2470.264,2022-2-03T09:49:54Z
2022-02-03T07:51:24Z,42.805,6.029,13.3021,4.60046,2470.287,2022-2-03T09:52:57Z
2022-02-03T07:54:27Z,42.805,6.029,13.3023,4.60049,2470.31,2022-2-03T09:56:00Z
2022-02-03T07:57:30Z,42.805,6.029,13.3021,4.60050,2470.264,2022-2-03T09:59:03Z
2022-02-03T08:00:33Z,42.805,6.029,13.3028,4.60051,2470.31,2022-2-03T10:02:06Z
2022-02-03T08:03:37Z,42.805,6.029,13.3024,4.60048,2470.297,2022-2-03T10:05:09Z
2022-02-03T08:06:40Z,42.805,6.029,13.3026,4.60049,2470.25,2022-2-03T10:08:12Z
2022-02-03T08:09:43Z,42.805,6.029,13.3023,4.60054,2470.287,2022-2-03T10:11:15Z
2022-02-03T08:12:46Z,42.805,6.029,13.3019,4.60054,2470.31,2022-2-03T10:14:18Z
2022-02-03T08:15:49Z,42.805,6.029,13.3026,4.60049,2470.273,2022-2-03T10:17:22Z
2022-02-03T08:18:52Z,42.805,6.029,13.3025,4.60051,2470.297,2022-2-03T10:20:25Z
2022-02-03T08:21:55Z,42.805,6.029,13.3022,4.60050,2470.264,2022-2-03T10:23:28Z
2022-02-03T08:24:58Z,42.805,6.029,13.3015,4.60049,2470.273,2022-2-03T10:26:31Z
2022-02-03T08:28:01Z,42.805,6.029,13.3024,4.60046,2470.287,2022-2-03T10:29:34Z
2022-02-03T08:31:05Z,42.805,6.029,13.3025,4.60051,2470.273,2022-2-03T10:32:37Z
2022-02-03T08:34:08Z,42.805,6.029,13.3017,4.60046,2470.25,2022-2-03T10:35:40Z
2022-02-03T08:37:11Z,42.805,6.029,13.3024,4.60046,2470.31,2022-2-03T10:38:43Z
2022-02-03T08:40:14Z,42.805,6.029,13.3022,4.60051,2470.297,2022-2-03T10:41:47Z
2022-02-03T08:43:17Z,42.805,6.029,13.3023,4.60049,2470.366,2022-2-03T10:44:50Z
2022-02-03T08:46:20Z,42.805,6.029,13.3024,4.60051,2470.297,2022-2-03T10:47:53Z
2022-02-03T08:49:23Z,42.805,6.029,13.3025,4.60048,2470.273,2022-2-03T10:50:56Z
2022-02-03T08:52:27Z,42.805,6.029,13.3016,4.60048,2470.287,2022-2-03T10:53:59Z
2022-02-03T08:55:30Z,42.805,6.029,13.3024,4.60052,2470.287,2022-2-03T10:57:02Z
2022-02-03T08:58:33Z,42.805,6.029,13.3018,4.60044,2470.273,2022-2-03T11:00:05Z
2022-02-03T09:01:36Z,42.805,6.029,13.3015,4.60042,2470.273,2022-2-03T11:03:08Z
2022-02-03T09:04:39Z,42.805,6.029,13.3025,4.60049,2470.297,2022-2-03T11:06:12Z
2022-02-03T09:07:42Z,42.805,6.029,13.3017,4.60049,2470.31,2022-2-03T11:09:15Z
2022-02-03T09:10:45Z,42.805,6.029,13.3022,4.60048,2470.31,2022-2-03T11:12:18Z
2022-02-03T09:13:48Z,42.805,6.029,13.3025,4.60055,2470.31,2022-2-03T11:15:21Z
2022-02-03T09:16:51Z,42.805,6.029,13.3021,4.60052,2470.273,2022-2-03T11:18:24Z
2022-02-03T09:19:55Z,42.805,6.029,13.3021,4.60047,2470.287,2022-2-03T11:21:27Z
2022-02-03T09:22:58Z,42.805,6.029,13.3023,4.60055,2470.297,2022-2-03T11:24:30Z
2022-02-03T09:26:01Z,42.805,6.029,13.3022,4.60041,2470.287,2022-2-03T11:27:33Z
2022-02-03T09:29:04Z,42.805,6.029,13.3016,4.60045,2470.273,2022-2-03T11:30:37Z
2022-02-03T09:32:07Z,42.805,6.029,13.3020,4.60049,2470.287,2022-2-03T11:33:40Z
2022-02-03T09:35:10Z,42.805,6.029,13.3014,4.60046,2470.264,2022-2-03T11:36:43Z
2022-02-03T09:38:13Z,42.805,6.029,13.3016,4.60049,2470.273,2022-2-03T11:39:46Z
2022-02-03T09:41:16Z,42.805,6.029,13.3017,4.60047,2470.273,2022-2-03T11:42:49Z
2022-02-03T09:44:20Z,42.805,6.029,13.3019,4.60050,2470.264,2022-2-03T11:45:52Z
2022-02-03T09:47:23Z,42.805,6.029,13.3018,4.60049,2470.287,2022-2-03T11:48:55Z
2022-02-03T09:50:26Z,42.805,6.029,13.3015,4.60053,2470.264,2022-2-03T11:51:58Z
2022-02-03T09:53:29Z,42.805,6.029,13.3021,4.60046,2470.287,2022-2-03T11:55:02Z
2022-02-03T09:56:32Z,42.805,6.029,13.3013,4.60050,2470.287,2022-2-03T11:58:05Z
2022-02-03T09:59:35Z,42.805,6.029,13.3021,4.60049,2470.25,2022-2-03T12:01:08Z
2022-02-03T10:02:38Z,42.805,6.029,13.3015,4.60049,2470.227,2022-2-03T12:04:11Z
2022-02-03T10:05:41Z,42.805,6.029,13.3017,4.60046,2470.287,2022-2-03T12:07:14Z
2022-02-03T10:08:45Z,42.805,6.029,13.3024,4.60057,2470.227,2022-2-03T12:10:17Z
2022-02-03T10:11:48Z,42.805,6.029,13.3021,4.60045,2470.217,2022-2-03T12:13:20Z
2022-02-03T10:14:51Z,42.805,6.029,13.3019,4.60049,2470.203,2022-2-03T12:16:23Z
2022-02-03T10:17:54Z,42.805,6.029,13.3015,4.60051,2470.264,2022-2-03T12:19:26Z
2022-02-03T10:20:57Z,42.805,6.029,13.3015,4.60044,2470.227,2022-2-03T12:22:30Z
2022-02-03T10:24:00Z,42.805,6.029,13.3015,4.60052,2470.203,2022-2-03T12:25:33Z
2022-02-03T10:27:03Z,42.805,6.029,13.3020,4.60046,2470.203,2022-2-03T12:28:36Z
2022-02-03T10:30:06Z,42.805,6.029,13.3014,4.60052,2470.203,2022-2-03T12:31:39Z
2022-02-03T10:33:10Z,42.805,6.029,13.3018,4.60052,2470.203,2022-2-03T12:34:42Z
2022-02-03T10:36:13Z,42.805,6.029,13.3014,4.60044,2470.203,2022-2-03T12:37:45Z
2022-02-03T10:39:16Z,42.805,6.029,13.3023,4.60057,2470.203,2022-2-03T12:40:48Z
2022-02-03T10:42:19Z,42.805,6.029,13.3027,4.60044,2470.227,2022-2-03T12:43:51Z
2022-02-03T10:45:22Z,42.805,6.029,13.3019,4.60049,2470.203,2022-2-03T12:46:55Z
2022-02-03T10:48:25Z,42.805,6.029,13.3015,4.60052,2470.203,2022-2-03T12:49:58Z
2022-02-03T10:51:28Z,42.805,6.029,13.3014,4.60046,2470.203,2022-2-03T12:53:01Z
2022-02-03T10:54:31Z,42.805,6.029,13.3017,4.60049,2470.203,2022-2-03T12:56:04Z
2022-02-03T10:57:35Z,42.805,6.029,13.3017,4.60052,2470.217,2022-2-03T12:59:07Z
2022-02-03T11:00:38Z,42.805,6.029,13.3015,4.60050,2470.156,2022-2-03T13:02:10Z
2022-02-03T11:03:41Z,42.805,6.029,13.3012,4.60043,2470.217,2022-2-03T13:05:13Z
2022-02-03T11:06:44Z,42.805,6.029,13.3014,4.60050,2470.194,2022-2-03T13:08:16Z
2022-02-03T11:09:47Z,42.805,6.029,13.3013,4.60049,2470.156,2022-2-03T13:11:20Z
2022-02-03T11:12:50Z,42.805,6.029,13.3017,4.60057,2470.194,2022-2-03T13:14:23Z
2022-02-03T11:15:53Z,42.805,6.029,13.3017,4.60041,2470.171,2022-2-03T13:17:26Z
2022-02-03T11:18:56Z,42.805,6.029,13.3024,4.60047,2470.156,2022-2-03T13:20:29Z
2022-02-03T11:22:00Z,42.805,6.029,13.3012,4.60044,2470.18,2022-2-03T13:23:32Z
2022-02-03T11:25:03Z,42.805,6.029,13.3019,4.60043,2470.18,2022-2-03T13:26:35Z
2022-02-03T11:28:06Z,42.805,6.029,13.3014,4.60052,2470.147,2022-2-03T13:29:38Z
2022-02-03T11:31:09Z,42.805,6.029,13.3015,4.60049,2470.133,2022-2-03T13:32:41Z
2022-02-03T11:34:12Z,42.805,6.029,13.3025,4.60064,2470.147,2022-2-03T13:35:45Z
2022-02-03T11:37:15Z,42.805,6.029,13.3024,4.60059,2470.147,2022-2-03T13:38:48Z
2022-02-03T11:40:18Z,42.805,6.029,13.3014,4.60049,2470.156,2022-2-03T13:41:51Z
2022-02-03T11:43:21Z,42.805,6.029,13.3030,4.60041,2470.171,2022-2-03T13:44:54Z
2022-02-03T11:46:24Z,42.805,6.029,13.3014,4.60046,2470.11,2022-2-03T13:47:57Z
2022-02-03T11:49:28Z,42.805,6.029,13.3019,4.60062,2470.133,2022-2-03T13:51:00Z
2022-02-03T11:52:31Z,42.805,6.029,13.3019,4.60063,2470.171,2022-2-03T13:54:03Z
2022-02-03T11:55:34Z,42.805,6.029,13.3013,4.60059,2470.11,2022-2-03T13:57:06Z
2022-02-03T11:58:37Z,42.805,6.029,13.3013,4.60070,2470.124,2022-2-03T14:00:10Z
2022-02-03T12:01:40Z,42.805,6.029,13.3029,4.60050,2470.1,2022-2-03T14:03:13Z
2022-02-03T12:04:43Z,42.805,6.029,13.3009,4.60046,2470.087,2022-2-03T14:06:16Z
2022-02-03T12:07:46Z,42.805,6.029,13.3017,4.60054,2470.04,2022-2-03T14:09:19Z
2022-02-03T12:10:49Z,42.805,6.029,13.3021,4.60059,2470.087,2022-2-03T14:12:22Z
2022-02-03T12:13:53Z,42.805,6.029,13.3014,4.60062,2470.087,2022-2-03T14:15:25Z
2022-02-03T12:16:56Z,42.805,6.029,13.3013,4.60044,2470.063,2022-2-03T14:18:28Z
2022-02-03T12:19:59Z,42.805,6.029,13.3011,4.60059,2470.063,2022-2-03T14:21:31Z
2022-02-03T12:23:02Z,42.805,6.029,13.3013,4.60054,2470.063,2022-2-03T14:24:35Z
2022-02-03T12:26:05Z,42.805,6.029,13.3019,4.60053,2470.063,2022-2-03T14:27:38Z
2022-02-03T12:29:08Z,42.805,6.029,13.3009,4.60056,2470.087,2022-2-03T14:30:41Z
2022-02-03T12:32:11Z,42.805,6.029,13.3014,4.60064,2470.04,2022-2-03T14:33:44Z
2022-02-03T12:35:14Z,42.805,6.029,13.3008,4.60056,2470.077,2022-2-03T14:36:47Z
2022-02-03T12:38:18Z,42.805,6.029,13.3014,4.60060,2470.04,2022-2-03T14:39:50Z
2022-02-03T12:41:21Z,42.805,6.029,13.3014,4.60062,2470.04,2022-2-03T14:42:53Z
2022-02-03T12:44:24Z,42.805,6.029,13.3015,4.60067,2470.03,2022-2-03T14:45:56Z
2022-02-03T12:47:27Z,42.805,6.029,13.3015,4.60061,2470.04,2022-2-03T14:49:00Z
2022-02-03T12:50:30Z,42.805,6.029,13.3013,4.60052,2470.017,2022-2-03T14:52:03Z
2022-02-03T12:53:33Z,42.805,6.029,13.3021,4.60061,2470.053,2022-2-03T14:55:06Z
2022-02-03T12:56:36Z,42.805,6.029,13.3023,4.60060,2470.017,2022-2-03T14:58:09Z
2022-02-03T12:59:39Z,42.805,6.029,13.3012,4.60046,2470.053,2022-2-03T15:01:12Z
2022-02-03T13:02:43Z,42.805,6.029,13.3015,4.60067,2470.003,2022-2-03T15:04:15Z
2022-02-03T13:05:46Z,42.805,6.029,13.3013,4.60047,2470.04,2022-2-03T15:07:18Z
2022-02-03T13:08:49Z,42.805,6.029,13.3024,4.60058,2470.03,2022-2-03T15:10:21Z
2022-02-03T13:11:52Z,42.805,6.029,13.3021,4.60060,2470.053,2022-2-03T15:13:24Z
2022-02-03T13:14:55Z,42.805,6.029,13.3013,4.60051,2469.993,2022-2-03T15:16:28Z
2022-02-03T13:17:58Z,42.805,6.029,13.3015,4.60062,2469.993,2022-2-03T15:19:31Z
2022-02-03T13:21:01Z,42.805,6.029,13.3007,4.60067,2470.053,2022-2-03T15:22:34Z
2022-02-03T13:24:04Z,42.805,6.029,13.3010,4.60046,2470.017,2022-2-03T15:25:37Z
2022-02-03T13:27:08Z,42.805,6.029,13.3019,4.60044,2470.03,2022-2-03T15:28:40Z
2022-02-03T13:30:11Z,42.805,6.029,13.3010,4.60046,2470.03,2022-2-03T15:31:43Z
2022-02-03T13:33:14Z,42.805,6.029,13.3011,4.60057,2470.03,2022-2-03T15:34:46Z
2022-02-03T13:36:17Z,42.805,6.029,13.3009,4.60046,2470.017,2022-2-03T15:37:49Z
2022-02-03T13:39:20Z,42.805,6.029,13.3019,4.60052,2470.03,2022-2-03T15:40:53Z
2022-02-03T13:42:23Z,42.805,6.029,13.3014,4.60035,2470.017,2022-2-03T15:43:56Z
2022-02-03T13:45:26Z,42.805,6.029,13.3010,4.60046,2470.017,2022-2-03T15:46:59Z
2022-02-03T13:48:29Z,42.805,6.029,13.3012,4.60050,2470.053,2022-2-03T15:50:02Z
2022-02-03T13:51:33Z,42.805,6.029,13.3019,4.60067,2470.04,2022-2-03T15:53:05Z
2022-02-03T13:54:36Z,42.805,6.029,13.3014,4.60044,2470.007,2022-2-03T15:56:08Z
2022-02-03T13:57:39Z,42.805,6.029,13.3007,4.60049,2469.993,2022-2-03T15:59:11Z
2022-02-03T14:00:42Z,42.805,6.029,13.3016,4.60057,2470.017,2022-2-03T16:02:14Z
2022-02-03T14:03:45Z,42.805,6.029,13.3015,4.60060,2470.017,2022-2-03T16:05:18Z
2022-02-03T14:06:48Z,42.805,6.029,13.3021,4.60046,2470.053,2022-2-03T16:08:21Z
2022-02-03T14:09:51Z,42.805,6.029,13.3013,4.60055,2470.007,2022-2-03T16:11:24Z
2022-02-03T14:12:54Z,42.805,6.029,13.3014,4.60072,2469.993,2022-2-03T16:14:27Z
2022-02-03T14:15:57Z,42.805,6.029,13.3020,4.60043,2470.03,2022-2-03T16:17:30Z
2022-02-03T14:19:01Z,42.805,6.029,13.3014,4.60058,2469.979,2022-2-03T16:20:33Z
2022-02-03T14:22:04Z,42.805,6.029,13.3017,4.60054,2470.04,2022-2-03T16:23:36Z
2022-02-03T14:25:07Z,42.805,6.029,13.3015,4.60062,2470.017,2022-2-03T16:26:39Z
2022-02-03T14:28:10Z,42.805,6.029,13.3017,4.60058,2469.97,2022-2-03T16:29:43Z
2022-02-03T14:31:13Z,42.805,6.029,13.3019,4.60054,2469.993,2022-2-03T16:32:46Z
2022-02-03T14:34:16Z,42.805,6.029,13.3024,4.60067,2469.97,2022-2-03T16:35:49Z
2022-02-03T14:37:19Z,42.805,6.029,13.3009,4.60063,2469.97,2022-2-03T16:38:52Z
2022-02-03T14:40:22Z,42.805,6.029,13.3006,4.60045,2469.97,2022-2-03T16:41:55Z
2022-02-03T14:43:26Z,42.805,6.029,13.3019,4.60049,2469.984,2022-2-03T16:44:58Z
2022-02-03T14:46:29Z,42.805,6.029,13.3003,4.60049,2469.984,2022-2-03T16:48:01Z
2022-02-03T14:49:32Z,42.805,6.029,13.3009,4.60042,2469.993,2022-2-03T16:51:04Z
2022-02-03T14:52:35Z,42.805,6.029,13.3011,4.60063,2469.97,2022-2-03T16:54:08Z
2022-02-03T14:55:38Z,42.805,6.029,13.3009,4.60052,2470.007,2022-2-03T16:57:11Z
2022-02-03T14:58:41Z,42.805,6.029,13.3007,4.60036,2469.956,2022-2-03T17:00:14Z
2022-02-03T15:01:44Z,42.805,6.029,13.3006,4.60047,2469.984,2022-2-03T17:03:17Z
2022-02-03T15:04:47Z,42.805,6.029,13.3022,4.60063,2469.984,2022-2-03T17:06:20Z
2022-02-03T15:07:51Z,42.805,6.029,13.3016,4.60067,2469.984,2022-2-03T17:09:23Z
2022-02-03T15:10:54Z,42.805,6.029,13.3009,4.60052,2469.984,2022-2-03T17:12:26Z
2022-02-03T15:13:57Z,42.805,6.029,13.3023,4.60046,2469.993,2022-2-03T17:15:29Z